Regional Weather Roundup
Issued by NWS

Home | Current Version | Previous Version | Graphics & Text | Print | Product List | Glossary On
Versions: 1 2 3 4 5 6 7 8 9 10 11 12 13 14 15 16 17 18 19 20 21 22 23 24 25 26 27 28 29 30 31 32 33 34 35 36 37 38 39 40 41 42 43 44 45 46 47 48 49 50
000
ASUS43 KLOT 041808
RWRIL

ILLINOIS REGIONAL WEATHER ROUNDUP
NATIONAL WEATHER SERVICE CHICAGO/ROMEOVILLE IL
100 PM CDT FRI SEP 04 2015

NOTE: "FAIR" INDICATES FEW OR NO CLOUDS BELOW 12,000 FEET WITH NO
SIGNIFICANT WEATHER AND/OR OBSTRUCTIONS TO VISIBILITY.

* THESE STATIONS ARE NOT UNDER NWS QUALITY CONTROL. THEY ALSO MAY NOT
  REPORT WEATHER SUCH AS PRECIPITATION OR FOG.

ILZ001-002-007-009-015-016-024-041900-
NORTHWEST ILLINOIS

CITY           SKY/WX    TMP DP  RH WIND       PRES   REMARKS
MOLINE         PTSUNNY   91  70  49 CALM      29.99F HX  96
6HR MIN TEMP:  69; 6HR MAX TEMP:  92;

STERLING*      MOSUNNY   91  72  52 W5        29.99F HX  98
SAVANNA*       SUNNY     86  71  59 W6        30.00F HX  91
$$

ILZ003-004-008-010-011-017-018-041900-
NORTH CENTRAL ILLINOIS

CITY           SKY/WX    TMP DP  RH WIND       PRES   REMARKS
ROCKFORD       PTSUNNY   84  71  65 VRB3      30.03F HX  89
6HR MIN TEMP:  68; 6HR MAX TEMP:  85;

FREEPORT*      PTSUNNY   82  72  73 S5        30.04F HX  86
ROCHELLE*      MOSUNNY   84  72  67 CALM      30.03F HX  90
DE KALB*       MOSUNNY   83  73  71 CALM      30.04F HX  89
PERU*          SUNNY     88  67  48 W3        30.02F HX  90
$$

ILZ005-006-012>014-019>023-041900-
NORTHEAST ILLINOIS

CITY           SKY/WX    TMP DP  RH WIND       PRES   REMARKS
CHICAGO-OHARE  MOSUNNY   82  68  62 VRB3      30.02F HX  85
6HR MIN TEMP:  69; 6HR MAX TEMP:  83;

CHICAGO-MIDWAY MOSUNNY   85  68  56 E12       30.01F HX  88
6HR MIN TEMP:  73; 6HR MAX TEMP:  87;

AURORA         MOSUNNY   85  73  67 VRB3      30.03F HX  91
6HR MIN TEMP:  66; 6HR MAX TEMP:  85;

LANSING*       PTSUNNY   83  70  63 NE6       30.02F HX  87
JOLIET*        PTSUNNY   87  72  61 CALM      30.01F HX  93
WAUKEGAN       PTSUNNY   74  66  76 CALM      30.03F
6HR MIN TEMP:  63; 6HR MAX TEMP:  74;

DUPAGE AIRPORT PTSUNNY   84  70  62 CALM      30.02F HX  88
6HR MIN TEMP:  66; 6HR MAX TEMP:  84;

KANKAKEE*      SUNNY     89  73  59 CALM      30.02F HX  96
WHEELING       SUNNY     77  66  68 E5        30.04F
6HR MIN TEMP:  68; 6HR MAX TEMP:  79;

MORRIS*        MOSUNNY   85  73  66 CALM      30.01F HX  91
ROMEOVILLE*    MOSUNNY   85  68  56 CALM      30.02F HX  87
NORTHERLY ISL    N/A     73  67  81 N10         N/A
$$

LMZ740>746-041900-
SOUTHERN LAKE MICHIGAN

STATION/POSITION SKY/WX   TEMP    WIND        PRES    VSBY  WAVE
                          AIR SEA DIR/SP/G                  HT/PER
                          (F)     (DEG/KT/KT) (MB)    (MI)  (FT/S)
SOUTHERN BUOY              68 71  290/  6/  8 1016.9
WILMETTE HARBOR            68 71  180/  8/ 10   N/A           1/ 4
HARRISON CRIB              68     360/  9/ 10   N/A
BURNHAM HARBOR             73     360/  8/ 10   N/A
CALUMET HARBOR             74      20/  6/  9   N/A
BURNS HARBOR               72      30/  8/  9 1017.6S
MICHIGAN CITY              73     340/  6/  7   N/A
MICHIGAN CITY 6N           72 74   10/  6/  8   N/A           2/ 4
ST. JOSEPH                 71 76   20/  6/  6   N/A           1/ 4
$$

ILZ025>027-034>036-040-047-049-050-058-095>099-041900-
WEST-CENTRAL ILLINOIS

CITY           SKY/WX    TMP DP  RH WIND       PRES   REMARKS
QUINCY         SUNNY     90  66  45 S6        30.01F HX  92
GALESBURG*     MOSUNNY   88  71  57 CALM      30.01F HX  93
MACOMB*        SUNNY     91  67  44 W7        30.03F HX  94
JACKSONVILLE*  PTSUNNY   93  68  44 SW7       30.02S HX  98
PITTSFIELD*    SUNNY     92  67  44 SW3       30.03F HX  95
$$

ILZ028>032-037-038-041>044-048-051>054-059>061-041900-
CENTRAL ILLINOIS

CITY           SKY/WX    TMP DP  RH WIND       PRES   REMARKS
PONTIAC        MOSUNNY   91  72  54 SW3       30.02F HX  98
BLOOMINGTON    MOSUNNY   92  69  46 SW8       30.04F HX  96
DECATUR        MOSUNNY   93  67  42 SW8       30.02F HX  96
PEORIA         SUNNY     93  68  43 S8        30.01F HX  97
6HR MIN TEMP:  73; 6HR MAX TEMP:  94;

LACON*         MOSUNNY   89  69  51 CALM      30.00F HX  94
LINCOLN*       MOSUNNY   95  67  39 S3        29.99F HX  98
SPRINGFIELD    MOSUNNY   93  67  42 SW6       30.01F HX  96
6HR MIN TEMP:  70; 6HR MAX TEMP:  94;

TAYLORVILLE    SUNNY     91  66  43 S6        30.02F HX  94
$$

ILZ033-039-045-046-055>057-062-063-041900-
EAST-CENTRAL ILLINOIS

CITY           SKY/WX    TMP DP  RH WIND       PRES   REMARKS
CHAMPAIGN      PTSUNNY   91  68  46 SW8       30.03F HX  95
MATTOON        MOSUNNY   90  65  43 S6        30.02F HX  92
PARIS*         SUNNY     91  68  46 SW6G16    30.03F HX  95
$$

ILZ079-100>102-041900-
SOUTHWEST ILLINOIS

CITY           SKY/WX    TMP DP  RH WIND       PRES   REMARKS
BELLEVILLE     MOSUNNY   90  73  56 VRB2      30.02S HX  98
CAHOKIA*       MOSUNNY   92  69  47 SE5       30.02F HX  97
SPARTA*        MOSUNNY   89  71  55 SW3       30.04F HX  95
$$

ILZ064>066-069>071-074>076-080>082-084>086-088>090-092>094-041900-
SOUTH-CENTRAL ILLINOIS

CITY           SKY/WX    TMP DP  RH WIND       PRES   REMARKS
CARBONDALE     SUNNY     89  68  49 W3        30.03F HX  93
6HR MIN TEMP:  67; 6HR MAX TEMP:  90;

CAIRO*         MOSUNNY   89  74  61 CALM      30.03F HX  97
EFFINGHAM*     PTSUNNY   91  62  37 S7        30.04F HX  92
MARION         MOSUNNY   91  68  46 S6        30.04F HX  95
MT. VERNON     SUNNY     93  68  43 S6        30.04F HX  97
CENTRALIA*     MOSUNNY   91  71  52 SW5       30.03S HX  97
SALEM*         MOSUNNY   91  69  48 S5        30.03F HX  96
METROPOLIS*    MOSUNNY   91  72  53 SW7       30.04S HX  98
$$

ILZ067-068-072-073-078-083-087-091-041900-
SOUTHEAST ILLINOIS

CITY           SKY/WX    TMP DP  RH WIND       PRES   REMARKS
LAWRENCEVILLE  SUNNY     93  67  42 SW7       30.03F HX  96
FLORA*         MOSUNNY   92  65  41 W5        30.03F HX  94
FAIRFIELD*     MOSUNNY   91  68  47 SW5       30.02F HX  94
HARRISBURG*    PTSUNNY   92  69  46 SW7       30.03F HX  97
ROBINSON*      SUNNY     91  67  44 SW6       30.04F HX  94
CARMI*         SUNNY     90  69  48 SW6       30.03S HX  94
$$

ABBREVIATIONS USED IN REMARKS
   TC - TEMPERATURE IN CELSIUS
  WCI - WIND CHILL INDEX
   HX - HEAT INDEX
  VSB - VISIBILITY
$$




USA.gov is the U.S. government's official web portal to all federal, state and local government web resources and services.